ATLAS D DEB, 2329

Orbit data source: Space-Track

ATLAS D DEB, 2329 is space debris in LEO originally from a launch on Thu, 14 Jul 1966 UTC launched from the Air Force Western Test Range (AFWTR). Debris objects in space refer to the collection of defunct objects orbiting the Earth. Examples of debris include non-operational satellites, rocket bodies, and fragments generated from explosions, collisions, or faulty payload assembly.

Loading next visibility...
Identifier
2329, 1966-063D
Orbit
LEO
Country
Flag of USUS
Related business
Manufacturer
Goodyear
Mission
Spacecraft
Bus & Motor
CONTAINER, Unknown motor
Mass
2 kg wet, 2 kg dry
Launch date (UTC)
1966-07-14 (60 years ago)
Launch vehicle
Unknown
Launch site
Air Force Western Test Range (AFWTR)
Object type
Payload
Rocket body
Debris
Shape & HBR
Unknown
Radar Cross Section
Medium (>0.1 m² and <1 m²)

Expand to show TLE details & history
Last TLE update: 16 hours ago

TLE from 16 hours ago
0 ATLAS D DEB
1  2329U 66063D   26105.30919977  .00000599  00000-0  25562-3 0  9992
2  2329 144.2862 138.6051 0021399 138.5400 249.9991 13.92598031 13417
Epoch: 2026-04-15T07:25Z
TLE epoch observation values (Epoch: 2026-04-15T07:25:14.860Z)
Latitude
16.12209°
Longitude
160.24506°
Altitude
923.294 km
Speed
7.391 km/s
True Right ascension
07h 40m 07s
True Declination
16° 01' 58"
Sunlit
Object was in daylight at epoch
Visualization orbit readout
Latitude
Unknown
Longitude
Unknown
Altitude
Unknown
Speed
Unknown
Apparent Right ascension
Unknown
Apparent Declination
Unknown
Sunlit
N/A
Visualization observer readout
Local Sidereal Time
05:34:49
Azimuth
Unknown
Elevation
Unknown
Doppler factor
Unknown
Orbital elements
Apogee altitude
938.119 km
Perigee altitude
906.873 km
Semi-major axis
7,300.633 km
Eccentricity
0.00214
Inclination
144.2862°
RAAN
138.6051°
Arg. of periapsis
138.54°
True anomaly
249.76889°
Mean anomaly
249.9991°
Eccentric anomaly
249.88397°
Mean motion
3.47938 °/min
Orbital period
103.47 mins
BSTAR
0.00025562
Loading maneuver chart data...
Computing Atmospheric mass density...
Loading historical data...
Loading historical data...
Loading historical data...
Loading historical data...
Loading historical data...
Loading historical data...
Loading historical data...

Documentation

Showing up to 5 results
|